Location: Aciu?a
(46.2833°N, 22.4500°E)
Time: 06:06:53
(UTC+00:00)

Cosmos 839 Rocket - Pass Details

Date: 25 October 2021
Orbit: 964 x 2088 km, 65.9° (Epoch: 04 December)

Event Time Altitude Azimuth Distance (km) Brightness Sun altitude
Rises 16:15:00 0° 324° (NW) 4,472 7.8 -9.0°
Reaches altitude 10° 16:18:10 10° 327° (NNW) 3,334 7.1 -9.6°
Maximum altitude 16:25:55 71° 51° (NE) 1,168 4.3 -10.9°
Drops below altitude 10° 16:32:17 10° 136° (SE) 2,767 6.0 -12.0°
Sets 16:34:42 0° 139° (SE) 3,668 6.7 -12.4°
